This is the latest recevied weather packets stored in our database for station/object KB3KBR-WX. If no packets are shown the sender has not sent any weather packets the latest 10 day(s).
| Time | Temp. | Humidity | Pressure | Rain* | Wind** | Luminosity | Snow |
|---|---|---|---|---|---|---|---|
| 1778120311 | 6.67° C | 72% | 1010.2 hPa | 0 mm | - | - | - |
| 1778120108 | 6.67° C | 71% | 1010.2 hPa | 0 mm | - | - | - |
| 1778119981 | 6.67° C | 71% | 1010.2 hPa | 0 mm | - | - | - |
| 1778119651 | 6.67° C | 71% | 1010.1 hPa | 0 mm | - | - | - |
| 1778119506 | 7.22° C | 71% | 1010.2 hPa | 0 mm | - | - | - |
| 1778119351 | 7.22° C | 71% | 1010.2 hPa | 0 mm | - | - | - |
| 1778119083 | 7.22° C | 70% | 1010.3 hPa | 0 mm | - | - | - |
| 1778119021 | 7.22° C | 70% | 1010.3 hPa | 0 mm | - | - | - |
| 1778118721 | 7.22° C | 71% | 1010.3 hPa | 0 mm | - | - | - |
| 1778118392 | 7.22° C | 70% | 1010.3 hPa | 0 mm | - | - | - |
| 1778118061 | 7.22° C | 69% | 1010.3 hPa | 0 mm | - | - | - |
| 1778117761 | 7.22° C | 69% | 1010.3 hPa | 0 mm | - | - | - |
| 1778117461 | 7.22° C | 70% | 1010.3 hPa | 0 mm | - | - | - |
| 1778117161 | 7.22° C | 69% | 1010.2 hPa | 0 mm | - | - | - |
| 1778116831 | 7.22° C | 68% | 1010.3 hPa | 0 mm | - | - | - |
| 1778116531 | 7.22° C | 67% | 1010.1 hPa | 0 mm | - | - | - |
| 1778116201 | 7.22° C | 69% | 1010.3 hPa | 0 mm | - | - | - |
| 1778115871 | 7.78° C | 71% | 1010.3 hPa | 0 mm | - | - | - |
| 1778115571 | 7.78° C | 68% | 1010.2 hPa | 0 mm | - | - | - |
| 1778115304 | 7.78° C | 69% | 1010 hPa | 0 mm | - | - | - |
| 1778115271 | 7.78° C | 69% | 1010 hPa | 0 mm | - | - | - |
| 1778114971 | 7.78° C | 70% | 1010.1 hPa | 0 mm | - | - | - |
| 1778114641 | 7.78° C | 66% | 1010.1 hPa | 0 mm | - | - | - |
| 1778114311 | 7.78° C | 66% | 1010.2 hPa | 0 mm | - | - | - |
| 1778114011 | 7.78° C | 65% | 1010.1 hPa | 0 mm | - | - | - |
* Rain latest hour (hover to see other rain measurements)
** Current wind speed in m/s (hover to see current wind gust speed)